Weather History for Big Piney, WY

Change the Weather History Date:

Wednesday, November 14, 2012

  Actual Average Record
Temperature  
Mean Temperature 27 °F 25 °F  
Max Temperature 36 °F 39 °F 63 °F (1999)
Min Temperature 17 °F 11 °F -25 °F (1978)
Degree Days  
Heating Degree Days 38 40  
Month to date heating degree days 460 516  
Since 1 July heating degree days 1590 2096  
Cooling Degree Days 0 0  
Month to date cooling degree days 0 0  
Year to date cooling degree days 67 35  
Moisture  
Dew Point 23 °F    
Average Humidity 83    
Maximum Humidity 96    
Minimum Humidity 69    
Precipitation  
Precipitation T in 0.01 in 0.15 in (2006)
Month to date precipitation 0.04 0.11  
Year to date precipitation 2.54 6.08  
Sea Level Pressure  
Sea Level Pressure 30.26 in    
Wind  
Wind Speed 4 mph (ENE)    
Max Wind Speed 8 mph    
Max Gust Speed 9 mph    
Visibility 7 miles    
Events Snow    
T = Trace of Precipitation, MM = Missing Value Source: NWS Daily Summary

Daily Weather History Graph

Daily Weather History Graph

Search for Another Location

Airport:

Trip Planner

Search our weather history database for the weather conditions in past years. The results will help you decide how hot, cold, wet, or windy it might be!

Date:

Astronomy

Nov. 14, 2012 Rise Set
Actual Time 7:11 AM MST 4:58 PM MST
Civil Twilight 6:40 AM MST 5:28 PM MST
Nautical Twilight 6:06 AM MST 6:02 PM MST
Astronomical Twilight 5:33 AM MST 6:35 PM MST
Moon 8:05 AM MST (11/14) 5:48 PM MST (11/14)
Length of Visible Light 10h 47m
Length of Day
9h 47m
New Moon, 1% of the Moon is Illuminated
Nov 14
New Moon
Nov 20
First Quarter
Nov 28
Full
Dec 6
Last Quarter
Dec 13
New

Hourly Weather History & Observations

Time (MST) Temp. Windchill Dew Point Humidity Pressure Visibility Wind Dir Wind Speed Gust Speed Precip Events Conditions
12:53 AM 21.0 °F - 19.0 °F 92% 30.28 in 10.0 mi Calm Calm - N/A   Partly Cloudy
1:53 AM 19.9 °F 13.4 °F 18.0 °F 92% 30.27 in 10.0 mi ENE 4.6 mph - N/A   Clear
2:53 AM 18.0 °F 11.1 °F 15.1 °F 88% 30.27 in 10.0 mi ENE 4.6 mph - N/A   Mostly Cloudy
3:53 AM 19.0 °F 12.3 °F 16.0 °F 88% 30.27 in 10.0 mi NE 4.6 mph - N/A   Mostly Cloudy
4:53 AM 19.9 °F 14.9 °F 17.1 °F 89% 30.28 in 10.0 mi North 3.5 mph - N/A   Overcast
5:53 AM 21.0 °F 16.2 °F 18.0 °F 88% 30.28 in 10.0 mi East 3.5 mph - N/A   Mostly Cloudy
6:53 AM 21.0 °F - 18.0 °F 88% 30.30 in 10.0 mi Calm Calm - N/A   Overcast
7:53 AM 21.0 °F - 18.0 °F 88% 30.31 in 10.0 mi Calm Calm - N/A   Mostly Cloudy
8:53 AM 25.0 °F - 21.0 °F 85% 30.32 in 10.0 mi Calm Calm - N/A   Overcast
9:53 AM 28.0 °F 24.2 °F 23.0 °F 81% 30.27 in 10.0 mi SE 3.5 mph - N/A   Overcast
10:53 AM 30.9 °F 27.5 °F 24.1 °F 76% 30.26 in 10.0 mi SE 3.5 mph - N/A   Overcast
11:53 AM 34.0 °F 28.0 °F 25.0 °F 70% 30.22 in 10.0 mi SE 6.9 mph - N/A   Overcast
12:53 PM 35.1 °F - 26.1 °F 70% 30.21 in 7.0 mi Calm Calm - 0.00 in   Overcast
1:24 PM 35.6 °F - 26.6 °F 70% 30.17 in 2.5 mi Calm Calm - 0.00 in Snow Light Snow
1:31 PM 35.6 °F 32.8 °F 28.4 °F 75% 30.18 in 4.0 mi ENE 3.5 mph - 0.00 in Snow Light Snow
1:46 PM 35.6 °F 30.7 °F 28.4 °F 75% 30.18 in 1.8 mi East 5.8 mph - 0.00 in Snow Light Snow
1:53 PM 34.0 °F 29.8 °F 28.9 °F 82% 30.22 in 1.2 mi ENE 4.6 mph - 0.00 in Snow Light Snow
2:21 PM 33.8 °F 28.6 °F 30.2 °F 87% 30.17 in 2.0 mi ENE 5.8 mph - N/A Snow Light Snow
2:38 PM 35.6 °F 31.7 °F 30.2 °F 81% 30.17 in 4.0 mi East 4.6 mph - 0.00 in Snow Light Snow
2:53 PM 35.1 °F 31.0 °F 30.0 °F 82% 30.22 in 8.0 mi East 4.6 mph - 0.00 in Snow Light Snow
3:53 PM 34.0 °F 31.0 °F 30.0 °F 85% 30.24 in 7.0 mi ENE 3.5 mph - 0.00 in Snow Light Snow
4:53 PM 32.0 °F - 28.9 °F 88% 30.25 in 10.0 mi Calm Calm - 0.00 in   Overcast
5:53 PM 30.0 °F 25.2 °F 28.0 °F 92% 30.26 in 10.0 mi ENE 4.6 mph - N/A   Scattered Clouds
6:53 PM 30.0 °F 24.1 °F 28.0 °F 92% 30.29 in 10.0 mi ENE 5.8 mph - N/A   Scattered Clouds
7:53 PM 24.1 °F 18.2 °F 21.9 °F 91% 30.33 in 9.0 mi North 4.6 mph - N/A   Clear
8:43 PM 23.0 °F 18.4 °F 21.2 °F 93% 30.25 in 1.8 mi NNE 3.5 mph - N/A   Clear
8:53 PM 23.0 °F 17.0 °F 21.0 °F 92% 30.34 in 0.8 mi ENE 4.6 mph - N/A   Mist
8:59 PM 23.0 °F - 21.2 °F 93% 30.26 in 1.2 mi Calm Calm - N/A   Partly Cloudy
9:02 PM 23.0 °F - 21.2 °F 93% 30.27 in 4.0 mi Calm Calm - N/A   Partly Cloudy
9:53 PM 21.0 °F 13.4 °F 18.0 °F 88% 30.34 in 10.0 mi WNW 5.8 mph - N/A   Clear
10:53 PM 19.0 °F 11.1 °F 15.1 °F 85% 30.34 in 10.0 mi West 5.8 mph - N/A   Clear
11:53 PM 19.0 °F - 16.0 °F 88% 30.33 in 10.0 mi Calm Calm - N/A   Clear